Wind_Speed
6 9 10 4 1 4 10 26 19 23 20 25 23 19 11 15 17 13 5 6 5 9 11 12 12 12 11 11 11 12 12 11 12 12 12 12 12 12 11 11 10 11 15
7 11 7 12 13 3 14 15 9 17 25 27 25 23 25 16 11 13 11 8 4 7 6 9 9 11 12 12 11 11 11 10 10 11 11 11 11 11 12 12 11 11 11
8 12 14 11 12 12 13 12 16 20 25 19 23 21 25 26 16 17 13 8 5 7 5 7 8 12 13 12 11 11 10 10 10 10 11 11 11 11 11 12 12 12 12
4 10 13 12 18 13 10 14 20 21 18 20 21 18 23 23 21 21 16 8 9 6 7 10 9 10 12 12 13 11 8 8 9 9 10 11 11 12 13 14 14 13 13
3 6 13 13 13 11 15 17 20 20 22 22 19 21 22 19 11 21 15 24 13 17 13 3 6 8 7 8 8 9 9 7 8 8 10 11 11 13 13 14 14 14 13
4 4 12 4 9 8 17 22 19 20 20 17 17 20 22 21 18 16 11 3 9 5 11 6 7 7 9 3 4 2 3 3 4 5 8 12 15 15 15 16 15 14 12
2 3 8 9 8 6 22 23 24 20 21 17 16 20 23 21 3 6 6 12 11 7 2 5 9 9 5 6 5 4 4 5 5 5 8 10 13 16 18 16 14 12 9
3 6 4 9 11 6 13 20 18 18 14 14 12 15 5 15 12 5 11 11 13 8 5 11 14 13 10 10 9 5 5 3 3 6 7 8 10 12 14 13 13 11 10
8 9 5 5 10 10 10 9 11 13 12 18 18 5 4 4 14 5 9 13 14 9 8 11 15 17 13 14 11 11 10 7 5 4 5 10 12 13 14 14 13 11 10
10 9 9 8 9 10 14 11 11 14 14 14 20 17 15 14 3 5 4 10 11 8 9 12 15 13 12 13 10 10 12 9 6 4 4 2 11 16 17 17 16 15 13
6 11 11 11 12 12 16 17 17 16 17 16 18 18 18 13 5 3 3 10 13 8 8 8 11 14 15 14 13 9 10 9 9 6 5 5 5 3 4 12 14 14 16
14 16 15 12 11 13 16 15 16 18 17 18 17 17 11 4 5 3 4 9 7 7 10 11 15 16 16 12 16 10 8 8 11 7 5 2 1 1 2 4 5 7 11
13 12 11 9 8 11 13 16 17 21 17 14 14 13 7 8 7 7 6 5 3 2 5 19 18 14 15 11 13 12 6 8 11 10 9 7 6 5 5 2 3 5 6
11 9 5 4 8 11 14 15 16 17 15 13 10 8 9 7 7 5 4 5 5 3 11 7 15 15 13 13 14 10 9 6 8 7 8 8 8 5 5 2 5 5 4
14 10 7 8 10 9 12 14 15 16 11 7 9 10 7 7 7 9 12 17 13 4 3 13 5 12 12 12 15 12 6 2 5 7 8 8 6 5 3 5 6 7 7
4 6 8 9 11 11 12 12 13 12 7 8 12 9 9 10 14 18 19 20 16 14 4 10 8 11 7 11 12 10 6 5 7 10 11 7 5 3 4 2 2 2 3
10 10 9 9 10 10 9 11 9 7 6 10 9 9 12 13 15 14 15 15 16 17 8 4 8 9 12 16 12 7 8 5 8 14 13 8 7 5 2 0 2 3 5
12 12 10 9 9 8 8 9 6 5 9 10 11 10 12 10 14 15 12 11 12 11 12 7 10 14 15 17 15 10 4 8 9 10 12 11 12 8 4 4 3 4 5
14 13 11 10 9 7 7 3 5 9 11 11 12 12 11 13 15 15 15 13 13 8 10 14 12 19 17 18 15 13 12 9 8 7 11 10 11 10 7 5 4 2 2
15 14 11 10 8 7 6 3 9 12 14 15 13 13 12 11 8 9 12 15 18 20 18 19 18 18 20 18 16 17 11 7 5 13 6 11 15 16 12 7 5 8 12
17 15 12 11 8 9 8 9 13 16 15 16 13 10 14 13 12 12 13 16 17 17 19 18 16 17 18 17 16 17 19 10 1 12 2 3 12 17 19 9 10 14 14
17 14 13 11 9 5 8 9 16 18 16 16 14 16 15 15 18 19 19 19 19 21 21 16 14 16 18 17 17 20 20 8 3 10 9 3 9 10 19 14 15 14 12
16 15 13 11 8 10 8 18 18 19 14 15 17 18 13 13 13 13 16 18 18 17 19 17 15 17 17 21 18 20 20 5 7 16 10 10 14 14 18 18 18 18 14
18 16 14 12 12 11 14 22 18 18 15 16 14 15 13 11 8 8 11 8 10 14 13 14 18 18 23 30 19 20 21 2 8 20 18 7 15 11 21 25 22 23 18
18 17 16 14 15 15 24 23 20 18 18 16 14 13 14 12 11 10 8 7 6 5 6 9 15 19 22 31 24 24 26 20 11 14 27 7 16 9 16 29 25 26 25
19 17 16 17 15 20 25 23 20 20 19 17 15 15 11 15 11 9 8 7 5 5 6 7 11 13 17 26 33 30 22 18 13 8 26 12 15 11 6 22 31 30 25
Wind_Direction
36 346 349 9 143 259 335 30 9 17 19 1 21 6 7 348 350 10 333 201 201 187 190 196 191 196 202 213 221 221 221 216 217 218 213 210 210 210 210 205 204 208 215
1 336 319 13 43 47 352 46 42 20 351 352 5 1 356 353 339 356 334 270 302 221 219 221 220 217 207 207 215 223 222 221 222 215 214 212 208 205 198 195 194 191 193
353 330 335 11 25 16 350 334 3 352 357 11 358 348 344 343 344 333 313 17 205 215 269 246 251 234 225 220 220 227 233 228 230 222 213 207 207 204 195 188 182 180 180
320 331 336 27 7 0 335 346 359 351 354 10 356 335 325 333 340 331 305 357 9 308 260 239 255 258 253 239 228 230 230 228 223 215 212 207 203 198 191 185 181 176 175
295 337 320 357 3 344 342 359 349 346 353 345 346 336 328 328 349 296 278 40 10 4 341 130 290 283 282 269 263 241 185 212 220 200 183 181 189 184 178 176 175 167 162
270 319 322 293 14 321 351 344 335 331 334 330 333 336 331 312 271 263 268 50 21 259 23 345 355 309 354 359 320 187 158 178 226 209 189 180 178 171 176 169 165 163 160
5 352 323 308 330 52 339 317 322 321 334 348 337 335 324 336 265 335 162 4 12 299 311 344 23 24 70 87 107 119 165 206 215 206 190 183 180 175 176 174 173 174 176
255 286 272 319 354 3 294 308 281 291 311 335 333 325 329 327 9 58 55 54 30 45 133 82 62 56 87 103 83 62 62 81 199 206 203 202 199 191 188 190 191 193 197
240 267 284 285 306 306 282 318 280 284 316 324 339 321 329 324 331 355 41 36 20 33 52 73 87 70 74 89 85 72 53 57 88 104 210 225 217 212 213 216 217 215 210
218 250 268 269 267 280 292 312 314 316 327 321 331 332 324 300 309 323 345 34 12 40 67 100 83 84 104 92 58 40 22 17 14 31 44 196 215 226 230 229 228 223 222
228 253 255 261 276 283 291 307 317 318 320 327 322 322 324 323 284 228 321 356 3 42 109 105 80 69 87 89 56 23 20 23 9 10 39 56 64 125 192 226 230 228 212
245 252 237 249 263 279 290 312 316 319 323 324 328 337 353 343 15 355 335 334 348 48 112 95 86 71 61 60 46 43 37 40 25 23 36 28 19 150 173 170 174 196 219
297 293 217 231 273 298 308 317 316 312 325 328 339 347 24 26 21 360 8 327 272 129 85 75 70 62 45 26 22 18 20 33 28 33 43 28 357 318 285 286 226 205 199
279 29 180 283 295 299 306 309 312 316 332 334 357 17 32 24 25 7 28 330 340 104 74 115 68 59 40 20 24 25 0 26 21 37 36 24 8 331 266 272 228 215 201
279 303 294 287 297 298 308 311 313 330 351 359 23 60 45 31 12 7 26 32 30 4 71 51 95 34 38 20 16 6 359 9 6 30 20 13 16 71 143 207 233 228 226
246 275 288 287 292 305 310 310 314 340 11 46 67 55 56 27 36 44 42 38 31 12 72 65 69 32 55 16 11 18 26 50 43 24 12 48 54 66 75 155 169 192 232
253 255 265 276 290 302 312 310 340 7 73 81 80 64 57 45 49 45 50 48 39 36 59 66 54 64 44 26 7 25 57 58 27 18 25 26 15 17 36 295 257 250 222
233 243 250 261 277 297 300 320 7 68 99 98 101 74 59 57 54 55 61 66 53 37 8 34 74 52 41 28 25 46 49 17 31 8 19 23 21 18 357 329 297 263 255
223 236 243 247 264 285 296 353 83 99 103 107 92 86 71 67 64 56 50 39 12 352 36 51 53 44 31 25 21 38 34 64 58 25 16 30 14 17 9 340 351 349 299
221 230 235 243 256 268 282 131 106 120 109 103 103 92 97 87 75 70 55 41 33 42 40 46 34 34 20 14 17 13 357 356 39 26 24 42 43 30 18 360 343 320 302
217 224 229 228 230 254 239 159 134 125 122 110 117 109 98 87 74 72 72 62 52 51 40 45 35 31 12 6 4 345 341 338 285 5 25 342 28 26 14 4 350 329 309
211 214 215 220 222 140 148 133 144 134 142 139 129 114 104 94 85 79 73 74 66 62 61 53 46 33 17 3 346 331 323 350 29 6 340 152 355 22 15 18 358 349 325
198 204 204 210 211 167 137 139 142 146 149 139 130 122 117 106 86 89 84 68 65 60 53 64 66 47 29 10 2 351 340 23 71 10 34 74 26 31 28 32 22 10 359
195 198 199 199 184 162 144 148 153 143 140 133 137 155 128 128 118 96 107 79 70 71 70 67 62 53 39 25 26 13 6 79 83 32 29 19 15 28 20 38 40 26 31
195 195 194 193 182 158 155 154 147 142 145 147 154 143 144 147 130 113 103 82 76 26 60 71 65 54 39 23 46 34 27 25 17 28 10 8 4 7 23 31 42 44 44
193 189 194 197 184 167 163 159 151 148 146 145 149 153 160 147 137 127 117 105 97 101 77 81 74 70 60 35 48 52 42 38 26 7 4 10 1 15 8 27 40 51 54
Height
813 815 814 808 812 818 814 813 815 811 810 806 804 806 806 803 804 804 800 798 798 798 798 800 798 799 801 807 810 809 811 812 812 815 816 817 821 823 825 828 829 831 833
815 819 821 821 820 820 816 813 812 805 800 802 804 803 802 802 802 799 797 795 798 801 802 800 799 800 798 799 804 808 809 809 811 813 814 816 818 821 823 825 827 828 830
820 819 820 819 818 817 815 811 807 805 804 803 803 801 801 801 799 798 795 792 791 794 801 805 804 801 800 797 798 802 806 807 809 811 812 813 816 818 821 823 824 826 828
823 823 821 820 815 812 807 806 809 810 809 805 803 801 801 800 798 797 799 801 800 796 796 800 802 804 799 797 796 799 803 806 808 810 810 812 813 816 819 821 823 824 826
824 825 822 819 817 813 814 815 811 807 804 802 801 799 800 799 795 788 801 789 794 795 795 795 801 800 798 799 799 797 794 804 805 806 806 809 812 814 817 819 822 823 825
824 825 823 820 819 816 816 816 813 813 813 811 807 802 800 799 792 789 801 804 797 796 795 798 798 799 796 798 796 795 799 803 805 807 807 806 808 811 817 818 821 822 824
826 826 824 822 822 822 817 819 821 818 815 812 809 804 799 796 793 796 796 794 792 789 792 799 796 796 796 797 797 799 802 805 805 805 806 808 808 809 813 816 818 821 822
826 827 828 824 826 825 818 817 819 821 817 816 813 808 800 795 797 799 797 795 795 795 795 796 796 796 798 798 799 800 803 804 804 805 807 808 809 811 812 815 817 819 821
826 827 828 829 825 826 822 820 821 822 818 814 812 812 810 803 800 796 796 797 797 798 799 799 792 797 801 802 804 804 805 803 803 804 805 806 808 809 811 813 815 817 818
823 825 827 828 827 826 824 822 822 820 817 812 809 810 810 808 804 798 794 797 799 799 800 798 799 801 804 806 806 806 806 805 804 804 804 803 804 806 808 810 811 813 815
822 822 824 824 825 824 823 822 819 816 813 812 811 809 807 804 802 803 801 797 797 798 800 800 802 804 805 807 808 807 806 805 805 803 803 804 804 804 804 805 808 809 812
817 817 819 820 821 821 820 818 816 812 811 810 810 807 805 805 803 804 803 802 800 802 801 802 803 806 806 806 806 805 805 805 804 803 802 802 802 802 802 803 804 806 809
817 815 818 818 818 818 817 816 814 813 812 810 808 805 803 805 805 805 805 803 801 801 804 804 805 806 807 805 805 805 804 803 803 802 802 802 801 800 800 800 802 803 805
818 818 818 818 818 817 817 816 814 813 812 810 809 807 806 806 806 805 805 804 800 800 804 806 807 807 808 807 807 807 804 804 803 802 802 801 800 799 798 799 800 801 802
817 817 817 817 816 817 817 815 814 813 811 808 808 808 809 808 808 807 807 805 803 806 808 807 808 808 808 809 808 807 806 804 803 802 801 800 799 798 798 798 798 799 800
815 816 816 816 815 816 815 814 812 812 811 810 811 811 810 810 810 809 808 807 806 807 808 809 809 810 809 809 808 806 803 803 803 802 800 798 797 797 797 797 797 798 798
814 814 815 815 814 814 814 812 813 811 810 812 813 813 813 812 812 811 811 811 810 810 811 811 809 811 809 809 808 807 804 802 802 801 799 798 797 796 795 795 795 795 795
812 811 812 813 813 813 812 811 811 811 811 813 814 815 815 814 815 815 815 815 814 813 813 811 812 810 810 809 808 807 806 804 803 801 799 797 796 794 793 793 792 792 792
808 809 810 811 811 811 811 810 811 812 813 815 815 816 816 817 818 818 818 818 816 815 813 812 813 812 812 810 809 807 805 804 802 800 798 797 795 794 792 791 790 789 789
804 806 807 809 809 810 809 809 810 813 815 816 817 818 818 820 820 821 821 819 818 815 815 816 816 816 815 813 810 809 807 804 802 801 799 797 795 793 791 789 788 787 785
800 803 805 806 807 807 807 808 810 813 816 817 819 820 821 823 823 823 823 823 822 820 819 820 820 820 818 814 812 810 806 804 802 801 798 797 795 793 790 787 785 782 778
797 800 802 804 804 805 805 807 809 813 815 817 820 822 824 826 826 826 827 827 827 826 825 824 824 822 820 817 813 810 807 804 803 802 799 797 796 793 789 786 782 777 773
795 797 799 801 803 803 805 807 810 813 816 819 821 823 826 828 828 829 830 830 830 828 827 827 825 822 821 818 814 809 805 803 804 802 798 797 796 793 788 784 780 775 767
792 795 797 799 800 803 805 808 811 814 817 820 822 824 826 829 829 830 831 832 832 831 830 829 827 824 823 819 815 813 808 805 805 803 800 799 796 793 789 784 779 773 765
790 792 795 797 798 801 805 807 811 814 817 821 822 824 827 828 830 831 832 833 833 832 831 830 829 827 826 823 817 814 811 809 808 808 805 802 798 794 791 786 781 776 770
787 790 793 794 796 799 804 808 810 813 818 821 823 825 826 827 830 831 832 834 834 833 833 832 831 831 830 827 823 820 819 816 815 811 810 807 801 797 794 791 786 782 779